STARLINK-5752, 55577

Orbit data source: Space-Track

STARLINK-5752, 55577 is a payload satellite owned by SpaceX/Seattle (US) in LEO that was launched on Sun, 12 Feb 2023 UTC via an FALCON 9 launch vehicle from the Air Force Eastern Test Range (AFETR). Payload-class satellites include a variety of spacecraft equipped with specific instruments for various scientific and technological missions. These include communications satellites like Starlink; space stations such as the ISS; scientific satellites like the Hubble; Earth observation satellites from companies like Planet Labs, Umbra, and HawkEye 360; GPS; miniature CubeSats for education and research; and military/defense satellites.

Loading next visibility...
Identifier
55577, 2023-020J
Orbit
LEO
Country
Flag of USUS
Related business
Manufacturer
SpaceX/Seattle
Mission
Operational spacecraft
Bus & Motor
STARLINK, Unknown motor
Mass
305 kg wet, ~290 kg dry
Launch date (UTC)
2023-02-12 (3 years ago)
Launch vehicle
FALCON 9
Launch site
Air Force Eastern Test Range (AFETR)
Object type
Payload
Rocket body
Debris
Shape & HBR
Unknown shape, 10.1 m
Radar Cross Section
Large (>1 m²)

Expand to show TLE details & history
Last TLE update: 16 hours ago

TLE from 16 hours ago
0 STARLINK-5752
1 55577U 23020J   25340.53031933  .00000541  00000-0  55085-4 0  9994
2 55577  43.0005 150.9520 0001319 268.8376  91.2315 15.02534121154903
Epoch: 2025-12-06T12:43Z
TLE epoch observation values (Epoch: 2025-12-06T12:43:39.590Z)
Latitude
-0.00001°
Longitude
-115.51971°
Altitude
558.883 km
Speed
7.584 km/s
True Right ascension
10h 03m 48s
True Declination
0° 00' 00"
Sunlit
Object was in daylight at epoch
Visualization orbit readout
Latitude
Unknown
Longitude
Unknown
Altitude
Unknown
Speed
Unknown
Apparent Right ascension
Unknown
Apparent Declination
Unknown
Sunlit
N/A
Visualization observer readout
Local Sidereal Time
03:11:24
Azimuth
Unknown
Elevation
Unknown
Doppler factor
Unknown
Orbital elements
Apogee altitude
561.924 km
Perigee altitude
560.094 km
Semi-major axis
6,939.146 km
Eccentricity
0.00013
Inclination
43.0005°
RAAN
150.952°
Arg. of periapsis
268.8376°
True anomaly
91.24661°
Mean anomaly
91.2315°
Eccentric anomaly
91.23906°
Mean motion
3.75478 °/min
Orbital period
95.88 mins
BSTAR
0.000055085
Loading maneuver chart data...
Computing Atmospheric mass density...
Loading historical data...
Loading historical data...
Loading historical data...
Loading historical data...
Loading historical data...
Loading historical data...
Loading historical data...

Documentation

Showing up to 5 results
|